When you browse on this site, cookies collect data to enhance your experience and personalize the content and advertising you see.
Visit our Privacy Policy to learn more. By continuing to use the site, you agree to this use of cookies and data.
  • In Latvia
  • List of Countries
  • For 7 days
  • Water Temperature
  • Weather Map
  • Weather Widgets
  • user-avatar
    Login

    Hourly Weather Canberra

    Today, 14 October, Monday

    Time Temperature Precipitation Wind Pressure Humidity
    00:00 +7°C° 0 mm 1 mps 709 mmHg 94%
    01:00 +6°C° 0 mm 0 mps 708 mmHg 95%
    02:00 +6°C° 0 mm 0 mps 708 mmHg 95%
    03:00 +6°C° 0 mm 0 mps 708 mmHg 95%
    04:00 +5°C° 0 mm 0 mps 708 mmHg 94%
    05:00 +7°C° 0 mm 0 mps 708 mmHg 90%
    06:00 +8°C° 0 mm 0 mps 709 mmHg 86%
    07:00 +10°C° 0 mm 0 mps 709 mmHg 83%
    08:00 +14°C° 0 mm 1 mps 709 mmHg 71%
    09:00 +16°C° 0 mm 2 mps 709 mmHg 60%
    10:00 +19°C° 0 mm 2 mps 709 mmHg 50%
    11:00 +20°C° 0 mm 3 mps 709 mmHg 48%
    12:00 +21°C° 0 mm 3 mps 708 mmHg 47%
    13:00 +22°C° 0 mm 3 mps 708 mmHg 46%
    14:00 +21°C° 0.5 mm 3 mps 708 mmHg 55%
    15:00 +20°C° 0.5 mm 2 mps 707 mmHg 63%
    16:00 +20°C° 0 mm 2 mps 707 mmHg 68%
    17:00 +19°C° 0.3 mm 1 mps 707 mmHg 73%
    18:00 +16°C° 0.3 mm 1 mps 707 mmHg 78%
    19:00 +13°C° 0.3 mm 0 mps 707 mmHg 83%
    20:00 +13°C° 0.1 mm 1 mps 707 mmHg 86%
    21:00 +13°C° 0.1 mm 1 mps 707 mmHg 88%
    22:00 +12°C° 0 mm 1 mps 707 mmHg 89%
    23:00 +11°C° 0 mm 1 mps 706 mmHg 90%

    Tomorrow, 15 October, Tuesday

    Time Temperature Precipitation Wind Pressure Humidity
    00:00 +11°C° 0 mm 1 mps 706 mmHg 91%
    01:00 +10°C° 0 mm 1 mps 706 mmHg 92%
    02:00 +10°C° 0 mm 1 mps 706 mmHg 92%
    03:00 +10°C° 0 mm 1 mps 705 mmHg 91%
    04:00 +10°C° 0 mm 1 mps 705 mmHg 91%
    05:00 +11°C° 0 mm 1 mps 706 mmHg 89%
    06:00 +12°C° 0 mm 1 mps 706 mmHg 87%
    07:00 +13°C° 0 mm 0 mps 707 mmHg 84%
    08:00 +16°C° 0 mm 1 mps 707 mmHg 73%
    09:00 +19°C° 0 mm 2 mps 707 mmHg 62%
    10:00 +23°C° 0 mm 2 mps 707 mmHg 51%
    11:00 +24°C° 0 mm 3 mps 706 mmHg 49%
    12:00 +23°C° 0 mm 4 mps 706 mmHg 47%
    13:00 +25°C° 0 mm 5 mps 706 mmHg 46%
    14:00 +25°C° 0 mm 5 mps 705 mmHg 46%
    15:00 +23°C° 0 mm 5 mps 705 mmHg 46%
    16:00 +23°C° 0 mm 4 mps 705 mmHg 46%
    17:00 +21°C° 0 mm 3 mps 705 mmHg 54%
    18:00 +18°C° 0 mm 2 mps 705 mmHg 62%
    19:00 +15°C° 0 mm 1 mps 705 mmHg 70%
    20:00 +14°C° 0 mm 1 mps 705 mmHg 71%
    21:00 +14°C° 0 mm 1 mps 706 mmHg 72%
    22:00 +12°C° 0 mm 0 mps 706 mmHg 73%
    23:00 +11°C° 0 mm 0 mps 706 mmHg 76%

    Day after tomorrow, 16 October, Wednesday

    Time Temperature Precipitation Wind Pressure Humidity
    00:00 +10°C° 0 mm 0 mps 705 mmHg 79%
    01:00 +9°C° 0 mm 0 mps 705 mmHg 82%
    02:00 +9°C° 0 mm 0 mps 705 mmHg 83%
    03:00 +9°C° 0 mm 0 mps 705 mmHg 84%
    04:00 +8°C° 0 mm 0 mps 705 mmHg 86%
    05:00 +10°C° 0 mm 0 mps 705 mmHg 81%
    06:00 +12°C° 0 mm 0 mps 705 mmHg 75%
    07:00 +14°C° 0 mm 1 mps 706 mmHg 70%
    08:00 +15°C° 0.1 mm 2 mps 706 mmHg 71%
    09:00 +15°C° 0.1 mm 4 mps 705 mmHg 71%
    10:00 +17°C° 0.1 mm 5 mps 705 mmHg 71%
    11:00 +16°C° 0.6 mm 5 mps 705 mmHg 77%
    12:00 +15°C° 0.6 mm 4 mps 704 mmHg 84%
    13:00 +16°C° 0.6 mm 3 mps 704 mmHg 91%
    14:00 +16°C° 0.7 mm 3 mps 703 mmHg 90%
    15:00 +15°C° 0.7 mm 2 mps 703 mmHg 90%
    16:00 +15°C° 0.7 mm 1 mps 702 mmHg 89%
    17:00 +15°C° 0 mm 1 mps 702 mmHg 91%
    18:00 +14°C° 0 mm 1 mps 702 mmHg 93%
    19:00 +13°C° 0 mm 1 mps 702 mmHg 95%
    20:00 +12°C° 0.1 mm 1 mps 702 mmHg 95%
    21:00 +12°C° 0.1 mm 1 mps 702 mmHg 95%
    22:00 +10°C° 0.1 mm 0 mps 702 mmHg 95%
    23:00 +11°C° 0 mm 1 mps 702 mmHg 96%

    17 October, Thursday

    Time Temperature Precipitation Wind Pressure Humidity
    00:00 +10°C° 0 mm 1 mps 702 mmHg 96%
    01:00 +10°C° 0 mm 1 mps 702 mmHg 97%
    02:00 +9°C° 0 mm 2 mps 702 mmHg 97%
    03:00 +8°C° 0 mm 2 mps 702 mmHg 96%
    04:00 +8°C° 0 mm 3 mps 702 mmHg 96%
    05:00 +7°C° 0 mm 4 mps 702 mmHg 92%
    06:00 +7°C° 0 mm 5 mps 703 mmHg 89%
    07:00 +7°C° 0 mm 6 mps 703 mmHg 85%
    08:00 +9°C° 0 mm 6 mps 704 mmHg 70%
    09:00 +10°C° 0 mm 7 mps 704 mmHg 55%
    10:00 +11°C° 0 mm 8 mps 704 mmHg 41%
    11:00 +11°C° 0 mm 9 mps 704 mmHg 39%
    12:00 +12°C° 0 mm 9 mps 704 mmHg 38%
    13:00 +12°C° 0 mm 9 mps 704 mmHg 37%
    14:00 +12°C° 0 mm 9 mps 705 mmHg 41%
    15:00 +11°C° 0 mm 8 mps 705 mmHg 45%
    16:00 +10°C° 0 mm 8 mps 705 mmHg 49%
    17:00 +9°C° 0 mm 6 mps 706 mmHg 54%
    18:00 +7°C° 0 mm 5 mps 707 mmHg 60%
    19:00 +7°C° 0 mm 3 mps 708 mmHg 66%
    20:00 +5°C° 0 mm 3 mps 708 mmHg 73%
    21:00 +5°C° 0 mm 2 mps 708 mmHg 79%
    22:00 +4°C° 0 mm 2 mps 708 mmHg 86%
    23:00 +4°C° 0 mm 2 mps 709 mmHg 88%

    18 October, Friday

    Time Temperature Precipitation Wind Pressure Humidity
    00:00 +4°C° 0 mm 2 mps 709 mmHg 89%
    01:00 +4°C° 0 mm 2 mps 709 mmHg 90%
    02:00 +3°C° 0 mm 2 mps 708 mmHg 91%
    03:00 +3°C° 0 mm 2 mps 708 mmHg 92%
    04:00 +3°C° 0 mm 2 mps 708 mmHg 93%
    05:00 +4°C° 0 mm 2 mps 708 mmHg 87%
    06:00 +4°C° 0 mm 3 mps 709 mmHg 80%
    07:00 +7°C° 0 mm 3 mps 709 mmHg 73%
    08:00 +8°C° 0 mm 4 mps 709 mmHg 63%
    09:00 +12°C° 0 mm 5 mps 709 mmHg 53%
    10:00 +15°C° 0 mm 6 mps 708 mmHg 43%
    11:00 +16°C° 0 mm 7 mps 708 mmHg 41%
    12:00 +17°C° 0 mm 8 mps 708 mmHg 39%
    13:00 +17°C° 0 mm 8 mps 707 mmHg 37%
    14:00 +18°C° 0 mm 8 mps 706 mmHg 36%
    15:00 +18°C° 0 mm 8 mps 706 mmHg 35%
    16:00 +18°C° 0 mm 8 mps 705 mmHg 34%
    17:00 +17°C° 0 mm 7 mps 705 mmHg 35%
    18:00 +15°C° 0 mm 6 mps 705 mmHg 36%
    19:00 +14°C° 0 mm 5 mps 706 mmHg 37%
    20:00 +13°C° 0 mm 5 mps 706 mmHg 40%
    21:00 +12°C° 0 mm 5 mps 706 mmHg 42%
    22:00 +12°C° 0 mm 4 mps 706 mmHg 45%
    23:00 +11°C° 0 mm 4 mps 706 mmHg 50%

    19 October, Saturday

    Time Temperature Precipitation Wind Pressure Humidity
    00:00 +11°C° 0 mm 4 mps 706 mmHg 55%
    01:00 +10°C° 0 mm 4 mps 706 mmHg 61%
    02:00 +10°C° 0 mm 4 mps 706 mmHg 66%
    03:00 +8°C° 0 mm 5 mps 706 mmHg 71%
    04:00 +8°C° 0 mm 5 mps 706 mmHg 76%
    05:00 +8°C° 0 mm 6 mps 706 mmHg 69%
    06:00 +8°C° 0 mm 6 mps 707 mmHg 62%
    07:00 +8°C° 0 mm 7 mps 707 mmHg 55%
    08:00 +10°C° 0 mm 7 mps 708 mmHg 50%
    09:00 +11°C° 0 mm 7 mps 708 mmHg 44%
    10:00 +12°C° 0 mm 7 mps 708 mmHg 39%
    11:00 +14°C° 0 mm 7 mps 708 mmHg 37%
    12:00 +15°C° 0 mm 7 mps 708 mmHg 36%
    13:00 +15°C° 0 mm 7 mps 708 mmHg 34%
    14:00 +15°C° 0 mm 7 mps 709 mmHg 35%
    15:00 +15°C° 0 mm 6 mps 709 mmHg 36%
    16:00 +14°C° 0 mm 6 mps 709 mmHg 38%
    17:00 +12°C° 0 mm 5 mps 710 mmHg 45%
    18:00 +10°C° 0 mm 4 mps 710 mmHg 52%
    19:00 +8°C° 0 mm 3 mps 711 mmHg 59%
    20:00 +6°C° 0 mm 2 mps 712 mmHg 66%
    21:00 +5°C° 0 mm 2 mps 712 mmHg 74%
    22:00 +4°C° 0 mm 1 mps 713 mmHg 81%
    23:00 +4°C° 0 mm 1 mps 713 mmHg 82%
    Show more